Location: Newark
(47.3150°N, 5.1150°E)
Time: 02:07:42
(UTC+00:00)

AO-7 - Pass Details

Date: 17 December 2019
Orbit: 1440 x 1458 km, 101.8° (Epoch: 23 January)

Event Time Altitude Azimuth Distance (km) Brightness Sun altitude
Rises 02:29:31 0° 23° (NNE) 4,564 ? -47.9°
Reaches altitude 10° 02:32:40 10° 32° (NNE) 3,585 ? -47.4°
Maximum altitude 02:40:11 36° 97° (E) 2,168 ? -46.2°
Enters shadow 02:41:58 33° 120° (ESE) 2,271 ? -45.9°
